Find Starlink 31040

NORAD ID: 58722 Int'l Des: 2024-002 Owner: SPXS Country: US Constellation: starlink operational
LEOCIRCULAR

当前视图

正在加载3D地球...

About Starlink 31040

Starlink 31040 (NORAD 58722) is a starlink constellation satellite (v2 mini) launched Jan 3, 2024 by SPXS of US. It operates in LEO, CIRCULAR orbit with a mass of 730.00 kg.

关于 Starlink 31040

正在加载描述...

即将过境

Passes for default location (London). Set your location on the main map for personalized predictions.

高度历史

Loading altitude history...

两行轨道根数

1 58722U 24002T 26167.18442939 .00000886 00000-0 37359-4 0 9997
2 58722 53.1602 131.8422 0001261 85.5527 274.5619 15.34386764137109
Epoch: Jun 16, 2026 • Age: 5 hours

当前状态

高度 471.1 km
速度 7.63 km/s
星下点 -26.68°S, 69.79°E
发射日期 Jan 3, 2024
运行时间 2.4 years
类型 internet

技术详情

分类 Payload
质量 730.00 kg
干质量 700.00 kg
总质量 730.00 kg
长度 0.30 m
直径 4.10 m
跨度 29.00 m
形状 Box + pan
制造商 SPXS
平台类型 Starlink V2M
阶段状态 In Orbit
所有者/国家 SPXS/US

Most Searched